This is the latest recevied weather packets stored in our database for station/object EA5DFV. If no packets are shown the sender has not sent any weather packets the latest 10 day(s).
| Time | Temp. | Humidity | Pressure | Rain* | Wind** | Luminosity | Snow |
|---|---|---|---|---|---|---|---|
| 1777960412 | 16.11° C | 84% | 1010.8 hPa | 0 mm | - | 28 W/m² | - |
| 1777960107 | 16.11° C | 84% | 1010.8 hPa | 0 mm | - | 21 W/m² | - |
| 1777959817 | 16.11° C | 84% | 1010.7 hPa | 0 mm | - | 18 W/m² | - |
| 1777959508 | 16.11° C | 84% | 1010.7 hPa | 0 mm | - | 16 W/m² | - |
| 1777959200 | 16.11° C | 84% | 1010.8 hPa | 0 mm | - | 16 W/m² | - |
| 1777958911 | 16.11° C | 84% | 1010.7 hPa | 0 mm | - | 14 W/m² | - |
| 1777958608 | 16.11° C | 84% | 1010.8 hPa | 0 mm | - | 12 W/m² | - |
| 1777958318 | 16.11° C | 84% | 1010.8 hPa | 0 mm | - | 12 W/m² | - |
| 1777958009 | 16.11° C | 84% | 1010.6 hPa | 0 mm | - | 9 W/m² | - |
| 1777957703 | 16.11° C | 84% | 1010.7 hPa | 0 mm | - | 5 W/m² | - |
| 1777957414 | 15.56° C | 84% | 1010.7 hPa | 0 mm | - | 0 W/m² | - |
| 1777957104 | 15.56° C | 84% | 1010.6 hPa | 0 mm | - | 0 W/m² | - |
| 1777956815 | 16.11° C | 84% | 1010.5 hPa | 0 mm | - | 0 W/m² | - |
| 1777956506 | 16.11° C | 84% | 1010.6 hPa | 0 mm | - | 0 W/m² | - |
| 1777956215 | 16.11° C | 84% | 1010.6 hPa | 0 mm | - | 0 W/m² | - |
| 1777955909 | 16.11° C | 84% | 1010.6 hPa | 0 mm | - | 0 W/m² | - |
| 1777955602 | 15.56° C | 84% | 1010.6 hPa | 0 mm | - | 0 W/m² | - |
| 1777955317 | 15.56° C | 84% | 1010.7 hPa | 0 mm | - | 0 W/m² | - |
| 1777955007 | 15.56° C | 84% | 1010.7 hPa | 0 mm | - | 0 W/m² | - |
| 1777954718 | 15.56° C | 84% | 1010.7 hPa | 0 mm | - | 0 W/m² | - |
| 1777954408 | 15.56° C | 84% | 1010.8 hPa | 0 mm | - | 0 W/m² | - |
| 1777954119 | 15.56° C | 84% | 1010.7 hPa | 0 mm | - | 0 W/m² | - |
| 1777953801 | 15.56° C | 84% | 1010.7 hPa | 0 mm | - | 0 W/m² | - |
| 1777953511 | 15.56° C | 84% | 1010.7 hPa | 0 mm | - | 0 W/m² | - |
| 1777953202 | 15.56° C | 84% | 1010.7 hPa | 0 mm | - | 0 W/m² | - |
* Rain latest hour (hover to see other rain measurements)
** Current wind speed in m/s (hover to see current wind gust speed)